• In Romania
  • List of Countries
  • For 7 days
  • Water Temperature
  • Satellite Maps
  • Weather Map
  • Weather Widgets
  • user-avatar
    Login

    Hourly Weather Ghent

    Today, 16 December, Saturday

    Time Temperature Precipitation Wind Pressure Humidity
    00:00 +2°C° 0 mm 3 mps 753 mmHg 89%
    01:00 +2°C° 0.1 mm 3 mps 754 mmHg 88%
    02:00 +2°C° 0.1 mm 3 mps 754 mmHg 88%
    03:00 +1°C° 0.1 mm 4 mps 755 mmHg 87%
    04:00 +1°C° 0.2 mm 4 mps 755 mmHg 87%
    05:00 +1°C° 0.2 mm 4 mps 756 mmHg 86%
    06:00 +1°C° 0.2 mm 4 mps 756 mmHg 86%
    07:00 +2°C° 0.3 mm 5 mps 757 mmHg 85%
    08:00 +2°C° 0.3 mm 5 mps 758 mmHg 84%
    09:00 +2°C° 0.3 mm 5 mps 758 mmHg 83%
    10:00 +3°C° 0.3 mm 5 mps 759 mmHg 79%
    11:00 +3°C° 0.3 mm 6 mps 759 mmHg 76%
    12:00 +4°C° 0.3 mm 6 mps 759 mmHg 72%
    13:00 +4°C° 0.2 mm 6 mps 760 mmHg 74%
    14:00 +3°C° 0.2 mm 6 mps 760 mmHg 76%
    15:00 +3°C° 0.2 mm 5 mps 761 mmHg 78%
    16:00 +2°C° 0.2 mm 5 mps 761 mmHg 79%
    17:00 +2°C° 0.2 mm 5 mps 762 mmHg 81%
    18:00 +1°C° 0.2 mm 5 mps 762 mmHg 83%
    19:00 +1°C° 0.1 mm 4 mps 763 mmHg 83%
    20:00 +1°C° 0.1 mm 4 mps 763 mmHg 83%
    21:00 0°C° 0.1 mm 4 mps 764 mmHg 84%
    22:00 0°C° 0.1 mm 4 mps 764 mmHg 84%
    23:00 0°C° 0.1 mm 4 mps 764 mmHg 85%

    Tomorrow, 17 December, Sunday

    Time Temperature Precipitation Wind Pressure Humidity
    00:00 0°C° 0.1 mm 4 mps 765 mmHg 86%
    01:00 0°C° 0 mm 4 mps 765 mmHg 86%
    02:00 +1°C° 0 mm 4 mps 765 mmHg 86%
    03:00 +1°C° 0 mm 4 mps 765 mmHg 86%
    04:00 +1°C° 0.1 mm 4 mps 766 mmHg 86%
    05:00 +1°C° 0.1 mm 4 mps 766 mmHg 86%
    06:00 +1°C° 0.1 mm 4 mps 767 mmHg 87%
    07:00 +1°C° 0.1 mm 4 mps 767 mmHg 86%
    08:00 +2°C° 0.1 mm 3 mps 767 mmHg 86%
    09:00 +3°C° 0.1 mm 3 mps 768 mmHg 85%
    10:00 +3°C° 0.1 mm 4 mps 768 mmHg 82%
    11:00 +4°C° 0.1 mm 4 mps 768 mmHg 78%
    12:00 +5°C° 0.1 mm 4 mps 768 mmHg 74%
    13:00 +4°C° 0 mm 4 mps 768 mmHg 75%
    14:00 +4°C° 0 mm 4 mps 768 mmHg 75%
    15:00 +3°C° 0 mm 4 mps 768 mmHg 75%
    16:00 +2°C° 0.3 mm 5 mps 768 mmHg 77%
    17:00 +2°C° 0.3 mm 5 mps 768 mmHg 79%
    18:00 +2°C° 0.3 mm 6 mps 768 mmHg 80%
    19:00 +2°C° 0.9 mm 6 mps 767 mmHg 84%
    20:00 +3°C° 0.9 mm 7 mps 767 mmHg 87%
    21:00 +3°C° 0.9 mm 7 mps 766 mmHg 90%
    22:00 +4°C° 0.8 mm 7 mps 766 mmHg 91%
    23:00 +5°C° 0.8 mm 7 mps 766 mmHg 93%

    Day after tomorrow, 18 December, Monday

    Time Temperature Precipitation Wind Pressure Humidity
    00:00 +6°C° 0.8 mm 7 mps 765 mmHg 94%
    01:00 +7°C° 0.2 mm 6 mps 765 mmHg 93%
    02:00 +7°C° 0.2 mm 6 mps 765 mmHg 93%
    03:00 +7°C° 0.2 mm 6 mps 765 mmHg 92%
    04:00 +7°C° 0 mm 5 mps 766 mmHg 89%
    05:00 +6°C° 0 mm 5 mps 766 mmHg 86%
    06:00 +5°C° 0 mm 5 mps 767 mmHg 83%
    07:00 +5°C° 0 mm 4 mps 767 mmHg 83%
    08:00 +5°C° 0 mm 4 mps 768 mmHg 82%
    09:00 +5°C° 0 mm 4 mps 769 mmHg 82%
    10:00 +6°C° 0 mm 4 mps 769 mmHg 78%
    11:00 +6°C° 0 mm 5 mps 769 mmHg 75%
    12:00 +7°C° 0 mm 6 mps 770 mmHg 72%
    13:00 +7°C° 0 mm 5 mps 770 mmHg 73%
    14:00 +6°C° 0 mm 4 mps 770 mmHg 75%
    15:00 +6°C° 0 mm 4 mps 771 mmHg 77%
    16:00 +5°C° 0 mm 3 mps 771 mmHg 80%
    17:00 +5°C° 0 mm 3 mps 772 mmHg 82%
    18:00 +4°C° 0 mm 3 mps 772 mmHg 84%
    19:00 +5°C° 0 mm 2 mps 773 mmHg 85%
    20:00 +5°C° 0 mm 1 mps 773 mmHg 85%
    21:00 +5°C° 0 mm 1 mps 774 mmHg 85%
    22:00 +5°C° 0 mm 1 mps 774 mmHg 85%
    23:00 +5°C° 0 mm 1 mps 775 mmHg 85%

    19 December, Tuesday

    Time Temperature Precipitation Wind Pressure Humidity
    00:00 +4°C° 0 mm 1 mps 775 mmHg 85%
    01:00 +4°C° 0 mm 1 mps 775 mmHg 86%
    02:00 +4°C° 0 mm 1 mps 775 mmHg 87%
    03:00 +4°C° 0 mm 1 mps 775 mmHg 88%
    04:00 +4°C° 0 mm 1 mps 776 mmHg 89%
    05:00 +4°C° 0 mm 1 mps 776 mmHg 89%
    06:00 +4°C° 0 mm 1 mps 776 mmHg 90%
    07:00 +3°C° 0 mm 2 mps 776 mmHg 90%
    08:00 +3°C° 0 mm 2 mps 777 mmHg 90%
    09:00 +3°C° 0 mm 2 mps 777 mmHg 91%
    10:00 +4°C° 0 mm 2 mps 777 mmHg 87%
    11:00 +4°C° 0 mm 3 mps 777 mmHg 84%
    12:00 +5°C° 0 mm 3 mps 777 mmHg 81%
    13:00 +5°C° 0 mm 3 mps 777 mmHg 83%
    14:00 +5°C° 0 mm 3 mps 777 mmHg 85%
    15:00 +5°C° 0 mm 2 mps 777 mmHg 86%
    16:00 +4°C° 0 mm 3 mps 777 mmHg 88%
    17:00 +3°C° 0 mm 3 mps 777 mmHg 89%
    18:00 +3°C° 0 mm 3 mps 777 mmHg 90%
    19:00 +3°C° 0 mm 3 mps 777 mmHg 89%
    20:00 +2°C° 0 mm 3 mps 777 mmHg 89%
    21:00 +2°C° 0 mm 3 mps 778 mmHg 89%
    22:00 +3°C° 0 mm 4 mps 778 mmHg 88%
    23:00 +3°C° 0 mm 4 mps 778 mmHg 87%

    20 December, Wednesday

    Time Temperature Precipitation Wind Pressure Humidity
    00:00 +3°C° 0 mm 4 mps 777 mmHg 87%
    01:00 +3°C° 0 mm 4 mps 777 mmHg 87%
    02:00 +3°C° 0 mm 4 mps 777 mmHg 86%
    03:00 +4°C° 0 mm 4 mps 777 mmHg 86%
    04:00 +4°C° 0.1 mm 4 mps 777 mmHg 87%
    05:00 +4°C° 0.1 mm 4 mps 777 mmHg 88%
    06:00 +4°C° 0.1 mm 4 mps 777 mmHg 88%
    07:00 +5°C° 0.1 mm 4 mps 777 mmHg 90%
    08:00 +5°C° 0.1 mm 4 mps 777 mmHg 91%
    09:00 +5°C° 0.1 mm 4 mps 778 mmHg 92%
    10:00 +6°C° 0 mm 4 mps 777 mmHg 92%
    11:00 +6°C° 0 mm 4 mps 777 mmHg 92%
    12:00 +6°C° 0 mm 4 mps 777 mmHg 93%
    13:00 +7°C° 0 mm 4 mps 777 mmHg 93%
    14:00 +7°C° 0 mm 4 mps 777 mmHg 94%
    15:00 +7°C° 0 mm 4 mps 777 mmHg 95%
    16:00 +8°C° 0 mm 3 mps 777 mmHg 95%
    17:00 +8°C° 0 mm 3 mps 777 mmHg 96%
    18:00 +8°C° 0 mm 3 mps 777 mmHg 96%
    19:00 +9°C° 0 mm 3 mps 777 mmHg 97%
    20:00 +9°C° 0 mm 3 mps 778 mmHg 97%
    21:00 +9°C° 0 mm 3 mps 778 mmHg 97%
    22:00 +8°C° 0 mm 4 mps 777 mmHg 97%
    23:00 +8°C° 0 mm 4 mps 777 mmHg 96%

    21 December, Thursday

    Time Temperature Precipitation Wind Pressure Humidity
    00:00 +8°C° 0 mm 4 mps 777 mmHg 96%
    01:00 +8°C° 0 mm 4 mps 777 mmHg 96%
    02:00 +8°C° 0 mm 5 mps 777 mmHg 96%
    03:00 +8°C° 0 mm 5 mps 776 mmHg 95%
    04:00 +8°C° 0 mm 5 mps 776 mmHg 95%
    05:00 +8°C° 0 mm 5 mps 776 mmHg 94%
    06:00 +9°C° 0 mm 6 mps 776 mmHg 94%
    07:00 +9°C° 0 mm 6 mps 776 mmHg 93%
    08:00 +9°C° 0 mm 6 mps 776 mmHg 92%
    09:00 +9°C° 0 mm 6 mps 776 mmHg 91%
    10:00 +9°C° 0.1 mm 6 mps 776 mmHg 90%
    11:00 +9°C° 0.1 mm 6 mps 776 mmHg 89%
    12:00 +10°C° 0.1 mm 6 mps 776 mmHg 88%
    13:00 +9°C° 0.1 mm 6 mps 776 mmHg 89%
    14:00 +9°C° 0.1 mm 5 mps 776 mmHg 91%
    15:00 +10°C° 0.1 mm 4 mps 776 mmHg 92%
    16:00 +10°C° 0 mm 4 mps 776 mmHg 93%
    17:00 +10°C° 0 mm 4 mps 777 mmHg 94%
    18:00 +10°C° 0 mm 3 mps 777 mmHg 95%
    19:00 +9°C° 0 mm 3 mps 777 mmHg 95%
    20:00 +9°C° 0 mm 2 mps 777 mmHg 95%
    21:00 +8°C° 0 mm 2 mps 777 mmHg 95%
    22:00 +8°C° 0 mm 2 mps 777 mmHg 95%
    23:00 +9°C° 0 mm 1 mps 777 mmHg 94%
    Show more